Find Hebi-3

NORAD ID: 56156 Int'l Des: 2023-047 Owner: PIESAT Country: CN operational
LEOCIRCULARRETROGRADESSO

Live Position

Loading 3D Globe...

About Hebi-3

Description loading...

Upcoming Passes

Passes for default location (London). Set your location on the main map for personalized predictions.

Altitude History

Loading altitude history...

Two-Line Element Set

1 56156U 23047D 26103.52931418 .00002319 00000-0 13032-3 0 9991
2 56156 97.5039 291.6076 0001438 84.3412 275.7984 15.14281101168019
Epoch: Apr 13, 2026 • Age: 19 hours

Current Status

Altitude 525.2 km
Velocity 7.60 km/s
Sub-Earth Point 17.73°N, 29.7°W
Launch Date Mar 30, 2023
Age 3 years
Type other

Technical Details

Classification Payload
Mass 270.00 kg
Dry Mass 270.00 kg
Total Mass 270.00 kg
Length 1.00 m
Diameter 1.00 m
Span 4.00 m
Shape Box + 2 Pan
Manufacturer YINHE
Bus Type Piesat
Phase Status In Orbit
Owner/State PIESAT/CN

Most Searched